SCP
0 0 0 0 0 0 0 0 0 0 0 0 0 0 0 0 0 0 0 0 0 0 0 0 0 0 0 0 0 0 0 0 0 0 0 0 0 0 0 0 0 0 0
0 0 0 0 0 0 0 0 0 0 0 0 0 0 0 0 0 0 0 0 0 0 0 0 0 0 0 0 0 0 0 0 0 0 0 0 0 0 0 0 0 0 0
0 0 0 0 0 0 0 0 0 0 0 0 0 0 0 0 0 0 0 0 0 0 0 0 0 0 0 0 0 0 0 0 0 0 0 0 0 0 0 0 0 0 0
0 0 0 0 0 0 0 0 0 0 0 0 0 0 0 0 0 0 0 0 0 0 0 0 0 0 0 0 0 0 0 0 0 0 0 0 0 0 0 0 0 0 0
0 0 0 0 0 0 0 0 0 0 0 0 0 0 0 0 0 0 0 0 0 0 0 0 0 0 0 0 0 0 0 0 0 0 0 0 0 0 0 0 0 0 0
0 0 0 0 1 0 0 0 0 0 0 0 0 0 0 0 0 0 0 0 0 0 0 0 0 0 0 0 0 0 0 0 0 0 0 0 0 0 0 0 0 0 0
0 0 0 0 0 0 0 0 0 0 0 0 0 0 0 0 0 0 0 0 0 0 0 0 0 0 0 0 0 0 0 0 0 0 0 -0 -0 0 0 0 0 0 0
0 0 0 0 0 0 0 0 0 0 0 0 0 0 0 0 0 0 0 0 0 0 0 0 0 0 0 0 0 0 0 0 0 0 -0 -0 -0 0 0 0 0 0 0
0 0 0 0 1 0 0 0 0 0 0 0 0 0 0 0 0 0 0 0 0 0 0 0 0 0 0 0 0 0 0 0 0 -0 -0 -0 0 0 0 0 0 0 0
0 1 1 0 1 0 1 0 0 0 0 0 0 0 0 0 0 0 0 0 0 0 0 0 0 0 0 0 0 0 0 0 0 -0 0 0 0 0 0 0 0 0 0
0 0 0 1 1 1 0 0 0 0 0 0 0 0 0 0 0 0 0 0 0 0 0 0 0 0 0 0 0 0 0 0 0 0 0 0 0 0 0 0 0 0 0
1 1 0 1 1 1 0 0 0 0 0 0 0 0 0 0 0 0 0 0 0 0 0 0 0 0 0 0 0 0 0 0 0 0 0 0 0 0 0 0 0 0 0
2 2 2 2 2 1 0 0 0 0 0 0 0 0 0 0 0 0 0 0 0 0 0 0 0 0 0 0 0 0 0 0 0 0 0 0 0 0 0 0 0 0 0
5 3 2 1 1 0 0 0 0 0 0 0 0 0 0 0 0 0 0 0 0 0 0 0 0 0 0 0 0 0 0 0 0 0 0 0 0 0 0 0 0 0 0
2 1 1 0 0 0 0 0 0 0 0 0 0 0 0 0 0 0 0 0 0 0 0 0 0 0 0 0 0 0 0 0 0 0 0 0 0 0 0 0 0 0 0
1 1 0 0 0 0 0 0 0 0 0 0 0 0 0 0 0 0 0 0 0 0 0 0 0 0 0 0 0 0 0 0 0 0 0 0 0 0 0 0 0 0 0
1 1 1 0 0 0 0 0 0 0 0 0 0 0 0 0 0 0 0 0 0 0 0 0 0 0 0 0 0 0 0 0 0 0 0 0 0 0 0 0 0 0 0
1 0 0 0 0 0 0 0 0 0 0 0 0 0 0 0 0 0 0 0 0 0 0 0 0 0 0 0 0 0 0 0 0 0 0 0 0 0 0 0 0 0 0
1 0 0 0 0 0 0 -0 -0 -0 0 0 0 0 0 0 0 0 0 0 0 0 0 0 0 0 0 0 0 0 0 0 -0 0 0 0 0 0 0 0 0 0 0
0 0 0 0 0 0 0 0 0 0 0 0 0 0 0 0 0 0 0 0 0 0 0 0 0 0 0 0 0 0 0 0 0 0 0 0 0 0 0 0 0 0 0
0 0 0 0 0 0 0 0 0 0 0 0 0 0 0 0 0 0 0 0 0 0 0 0 0 0 0 0 0 0 0 0 0 0 0 0 0 0 0 0 0 0 0
0 1 1 0 0 0 0 0 0 0 0 0 0 0 0 0 0 0 0 0 0 0 0 0 0 0 0 0 0 0 0 0 0 0 0 0 0 0 0 0 0 0 0
0 1 0 0 0 0 0 0 0 0 1 0 0 0 0 0 0 0 0 0 0 0 0 0 0 0 0 0 0 0 0 0 0 0 0 0 0 0 0 0 0 0 0
0 0 0 0 0 0 0 0 0 0 0 0 0 0 0 0 0 0 0 0 0 0 0 0 0 0 0 0 0 0 0 0 0 0 0 0 0 0 0 0 0 0 0
0 0 0 0 0 0 0 0 0 0 0 0 0 0 0 0 0 0 0 0 0 0 0 0 0 0 0 0 0 0 0 0 0 0 0 0 0 0 0 0 0 0 0
-0 0 0 0 0 0 0 0 0 0 0 0 0 0 0 0 0 0 0 0 0 0 0 0 0 0 0 0 0 0 0 0 0 0 0 0 0 0 0 0 0 0 0
Wind_Speed_500mb
27 24 21 17 14 13 10 9 6 5 4 4 4 6 6 8 7 7 8 4 6 3 3 9 10 10 12 12 12 14 17 21 26 27 23 24 25 25 25 23 17 15 18
29 25 23 19 16 14 12 10 8 5 4 5 5 6 6 5 6 7 4 5 3 1 2 5 5 5 4 5 7 11 15 17 20 21 21 25 25 27 28 28 22 20 23
38 32 25 23 20 19 16 13 11 9 6 5 6 6 6 8 7 7 5 3 3 2 5 6 5 2 2 3 3 5 7 11 14 18 22 25 27 29 30 28 30 30 31
46 40 30 26 23 22 20 14 10 10 10 9 9 7 9 9 10 9 7 8 8 2 2 9 6 4 4 5 4 4 4 7 10 14 17 21 22 25 25 26 34 40 41
48 47 36 29 30 24 22 20 15 13 13 13 11 11 10 10 9 7 9 10 9 10 10 9 8 7 6 7 4 4 8 12 15 16 18 19 22 24 26 29 34 40 43
53 51 41 35 37 28 27 26 21 16 15 15 14 14 11 11 11 11 9 9 10 10 11 10 6 7 8 5 2 9 15 18 17 17 18 18 20 21 25 29 35 40 44
51 53 43 35 45 36 31 31 26 24 17 19 19 15 13 17 16 15 10 11 11 9 12 12 12 8 5 3 5 13 19 22 23 23 21 23 24 23 24 28 32 35 39
55 50 50 37 39 34 41 37 31 20 20 24 21 18 16 16 20 19 17 16 16 13 13 12 14 12 11 5 14 17 20 25 23 24 27 25 27 29 30 34 34 34 38
57 56 55 49 47 45 36 41 34 31 24 25 30 19 15 19 16 23 27 22 24 19 18 18 16 14 12 10 13 21 24 27 27 28 28 28 31 36 38 41 35 34 38
61 58 56 55 54 48 40 41 39 32 33 29 28 34 28 12 16 13 24 28 28 26 25 20 20 18 16 12 18 18 24 29 29 29 29 30 34 39 43 41 39 39 43
56 57 52 57 57 52 50 49 43 37 33 32 30 25 33 28 28 23 19 22 28 28 27 27 22 20 20 18 15 20 30 30 28 30 30 31 37 42 45 43 43 43 46
51 54 50 58 56 54 54 52 49 43 42 38 32 33 27 23 26 26 27 21 24 24 24 25 27 23 23 18 20 26 28 27 27 29 31 34 40 44 42 44 48 47 49
35 42 56 63 66 57 48 51 49 48 48 49 46 34 30 27 24 22 24 22 21 23 20 22 23 24 22 18 20 26 27 24 25 29 34 39 42 42 42 48 48 49 52
44 47 50 60 64 61 46 42 47 47 39 46 49 45 30 28 27 24 24 24 23 25 24 18 23 24 22 21 28 25 22 20 24 29 36 40 41 41 47 49 49 49 50
52 54 48 47 44 29 39 42 39 39 46 49 46 48 43 29 26 25 24 25 26 22 26 23 19 29 23 22 23 19 19 24 24 30 37 42 42 44 47 47 47 49 46
45 36 29 28 41 42 47 34 47 37 49 49 47 41 45 30 27 24 22 22 22 20 18 19 25 24 23 21 19 14 14 18 22 29 38 44 44 45 43 44 47 46 40
36 37 41 38 56 60 73 62 60 57 51 51 50 42 46 40 28 25 22 21 18 16 17 17 19 25 21 16 13 10 11 18 19 33 40 43 43 38 42 47 46 40 31
46 38 41 48 29 38 47 47 76 59 62 55 48 51 53 50 42 34 26 27 21 22 17 22 20 21 19 12 9 9 11 14 21 30 38 39 35 37 42 47 42 32 23
42 46 42 43 41 45 31 35 35 64 75 72 61 59 64 57 52 35 36 30 25 25 23 19 17 19 17 10 7 9 14 17 18 31 36 42 31 32 37 43 38 24 13
30 37 38 45 47 42 50 37 47 67 64 68 64 64 69 58 54 49 46 43 33 31 30 24 20 20 17 13 8 9 6 11 19 20 28 33 31 36 41 38 34 11 4
28 34 40 43 53 58 55 44 51 72 68 71 77 71 74 69 57 53 50 51 46 45 32 27 22 22 19 16 12 12 7 11 15 22 21 15 15 18 25 32 35 12 3
20 29 34 42 55 70 70 70 69 68 71 63 63 77 84 75 63 71 61 56 59 55 44 34 30 29 25 23 22 13 11 9 6 29 24 13 13 14 19 25 28 18 4
20 22 30 42 51 60 67 68 69 65 66 68 77 80 84 85 87 90 71 63 68 64 53 43 40 32 27 32 27 26 19 14 12 16 23 11 12 14 17 23 16 19 13
23 25 24 28 43 56 54 57 60 66 67 77 83 89 89 78 78 94 95 82 78 76 66 62 52 37 32 35 34 30 27 27 25 18 20 7 14 13 17 18 20 11 15
25 27 31 31 31 41 56 55 57 54 62 75 77 80 77 76 80 84 85 76 70 74 73 67 60 51 51 44 40 33 26 16 15 17 22 11 12 17 15 22 25 15 25
23 27 30 32 35 39 41 50 58 64 65 66 66 69 78 75 81 86 105 94 92 79 74 69 63 58 58 58 50 41 28 22 22 18 24 16 14 19 11 14 16 32 30
Wind_Direction_500mb
226 223 219 214 219 230 247 256 247 282 249 237 252 240 222 214 212 185 257 252 295 276 190 209 222 255 265 266 269 274 276 281 289 290 293 293 298 301 299 300 306 307 303
231 225 227 226 230 235 239 242 255 257 251 242 256 189 181 196 179 164 230 285 271 226 169 137 174 210 232 244 258 269 275 283 288 290 287 284 288 292 294 291 292 291 294
233 225 231 235 244 239 231 237 274 267 252 248 224 202 191 186 196 187 170 204 346 278 194 175 188 222 244 229 238 264 278 289 291 288 288 288 291 289 288 283 284 287 289
237 238 231 237 243 236 237 231 240 244 238 233 227 214 215 186 201 189 183 178 166 242 142 174 181 160 136 140 135 102 36 356 328 322 310 298 294 289 287 273 267 276 284
243 239 233 233 235 238 234 235 241 234 237 213 222 210 211 210 200 208 199 190 197 166 205 195 182 185 160 152 133 47 5 347 339 330 316 304 297 291 288 284 276 274 274
243 242 234 231 240 236 239 238 239 242 228 223 209 220 203 210 207 218 216 187 198 178 173 175 151 201 179 171 358 353 360 351 355 350 350 342 328 312 300 290 287 285 282
239 242 236 238 244 237 235 241 255 251 233 220 207 219 219 215 215 214 211 206 205 171 198 184 165 207 222 248 323 339 353 351 350 354 349 4 351 339 335 323 305 298 291
242 245 245 235 244 232 243 243 250 232 230 219 210 218 224 233 237 226 215 209 212 213 213 200 201 187 199 243 280 322 343 346 339 335 348 346 337 335 335 328 320 314 307
244 245 248 239 242 235 238 242 251 248 236 234 217 213 225 242 208 230 221 214 218 213 219 223 217 218 225 227 292 322 331 329 327 330 339 333 328 328 335 333 324 316 310
243 242 244 245 241 237 228 243 248 249 231 235 237 233 233 230 228 209 229 225 221 221 224 227 244 237 239 257 267 287 310 322 323 323 329 324 322 328 334 330 323 318 312
245 242 240 241 238 237 240 242 248 256 238 230 236 241 240 244 247 252 256 227 234 229 234 232 233 246 250 252 272 289 311 314 315 318 319 320 324 328 335 329 322 320 319
240 236 234 233 233 236 239 245 246 255 243 238 231 231 234 239 244 244 249 250 231 230 226 224 236 242 243 248 273 286 299 307 314 316 321 324 326 332 334 328 327 327 325
217 223 224 227 232 234 231 239 246 252 250 246 243 236 236 239 241 242 242 247 231 219 227 221 229 231 237 247 267 291 301 309 313 320 324 327 331 332 338 330 328 330 330
209 220 223 228 232 236 232 236 246 257 251 251 245 238 236 240 238 238 237 237 238 227 231 220 219 216 228 249 269 288 302 309 315 323 330 330 334 339 338 331 332 331 332
242 243 244 236 237 254 255 236 254 253 249 253 245 244 237 239 235 233 230 227 231 230 230 229 220 220 222 249 265 280 290 306 323 334 334 336 337 342 338 333 335 338 335
245 244 222 246 247 257 278 267 242 253 256 250 245 245 237 233 232 227 224 225 223 228 237 220 210 227 221 245 265 276 296 316 335 343 337 337 340 344 338 340 342 341 341
218 235 255 259 256 267 268 241 221 236 242 246 243 235 240 228 228 223 218 218 215 208 228 214 207 232 231 236 257 291 331 344 328 340 339 337 344 343 343 345 344 342 346
231 247 239 241 248 244 262 242 233 224 228 239 239 240 243 239 229 220 216 217 209 210 210 212 211 220 214 214 255 311 349 329 338 335 337 338 344 349 344 350 348 347 1
251 248 244 233 235 231 235 217 219 200 214 220 243 246 243 235 235 220 220 227 214 212 213 202 203 204 215 232 271 309 338 340 348 335 335 337 346 344 352 357 358 355 52
243 249 234 236 231 229 211 245 219 203 215 231 237 236 239 238 236 231 237 227 215 214 216 210 202 212 223 239 265 236 308 319 326 323 330 332 346 352 348 5 6 12 72
259 246 245 241 234 230 220 239 231 216 238 249 243 242 235 234 234 240 234 232 226 222 221 215 216 217 218 226 233 237 310 311 321 313 335 329 335 348 340 351 4 11 163
295 262 264 258 245 235 237 249 255 246 255 247 244 236 233 232 239 243 245 237 236 231 221 221 226 231 220 235 247 252 279 302 290 304 325 328 326 341 338 344 0 12 319
317 301 280 260 253 254 256 260 254 254 243 245 244 240 238 241 241 237 238 239 237 236 235 240 232 234 238 250 243 269 275 284 278 264 312 316 300 341 320 331 348 3 351
312 294 283 285 271 258 256 258 252 249 248 245 245 247 251 247 237 235 233 242 234 233 231 237 240 240 248 250 256 262 272 286 294 291 293 323 297 325 311 307 314 314 340
325 312 297 285 278 275 260 257 253 245 249 248 244 244 249 247 242 235 232 232 232 235 235 238 241 248 255 259 263 269 272 265 270 259 285 285 297 313 312 295 298 275 319
324 314 303 294 289 285 271 257 251 247 252 249 246 246 247 246 244 240 240 225 227 239 237 235 237 242 250 255 258 258 256 252 256 267 249 273 298 310 318 277 278 304 308
Wind_Speed_850mb
27 24 21 17 14 13 10 9 6 5 4 4 4 6 6 8 7 7 8 4 6 3 3 9 10 10 12 12 12 14 17 21 26 27 23 24 25 25 25 23 17 15 18
29 25 23 19 16 14 12 10 8 5 4 5 5 6 6 5 6 7 4 5 3 1 2 5 5 5 4 5 7 11 15 17 20 21 21 25 25 27 28 28 22 20 23
38 32 25 23 20 19 16 13 11 9 6 5 6 6 6 8 7 7 5 3 3 2 5 6 5 2 2 3 3 5 7 11 14 18 22 25 27 29 30 28 30 30 31
46 40 30 26 23 22 20 14 10 10 10 9 9 7 9 9 10 9 7 8 8 2 2 9 6 4 4 5 4 4 4 7 10 14 17 21 22 25 25 26 34 40 41
48 47 36 29 30 24 22 20 15 13 13 13 11 11 10 10 9 7 9 10 9 10 10 9 8 7 6 7 4 4 8 12 15 16 18 19 22 24 26 29 34 40 43
53 51 41 35 37 28 27 26 21 16 15 15 14 14 11 11 11 11 9 9 10 10 11 10 6 7 8 5 2 9 15 18 17 17 18 18 20 21 25 29 35 40 44
51 53 43 35 45 36 31 31 26 24 17 19 19 15 13 17 16 15 10 11 11 9 12 12 12 8 5 3 5 13 19 22 23 23 21 23 24 23 24 28 32 35 39
55 50 50 37 39 34 41 37 31 20 20 24 21 18 16 16 20 19 17 16 16 13 13 12 14 12 11 5 14 17 20 25 23 24 27 25 27 29 30 34 34 34 38
57 56 55 49 47 45 36 41 34 31 24 25 30 19 15 19 16 23 27 22 24 19 18 18 16 14 12 10 13 21 24 27 27 28 28 28 31 36 38 41 35 34 38
61 58 56 55 54 48 40 41 39 32 33 29 28 34 28 12 16 13 24 28 28 26 25 20 20 18 16 12 18 18 24 29 29 29 29 30 34 39 43 41 39 39 43
56 57 52 57 57 52 50 49 43 37 33 32 30 25 33 28 28 23 19 22 28 28 27 27 22 20 20 18 15 20 30 30 28 30 30 31 37 42 45 43 43 43 46
51 54 50 58 56 54 54 52 49 43 42 38 32 33 27 23 26 26 27 21 24 24 24 25 27 23 23 18 20 26 28 27 27 29 31 34 40 44 42 44 48 47 49
35 42 56 63 66 57 48 51 49 48 48 49 46 34 30 27 24 22 24 22 21 23 20 22 23 24 22 18 20 26 27 24 25 29 34 39 42 42 42 48 48 49 52
44 47 50 60 64 61 46 42 47 47 39 46 49 45 30 28 27 24 24 24 23 25 24 18 23 24 22 21 28 25 22 20 24 29 36 40 41 41 47 49 49 49 50
52 54 48 47 44 29 39 42 39 39 46 49 46 48 43 29 26 25 24 25 26 22 26 23 19 29 23 22 23 19 19 24 24 30 37 42 42 44 47 47 47 49 46
45 36 29 28 41 42 47 34 47 37 49 49 47 41 45 30 27 24 22 22 22 20 18 19 25 24 23 21 19 14 14 18 22 29 38 44 44 45 43 44 47 46 40
36 37 41 38 56 60 73 62 60 57 51 51 50 42 46 40 28 25 22 21 18 16 17 17 19 25 21 16 13 10 11 18 19 33 40 43 43 38 42 47 46 40 31
46 38 41 48 29 38 47 47 76 59 62 55 48 51 53 50 42 34 26 27 21 22 17 22 20 21 19 12 9 9 11 14 21 30 38 39 35 37 42 47 42 32 23
42 46 42 43 41 45 31 35 35 64 75 72 61 59 64 57 52 35 36 30 25 25 23 19 17 19 17 10 7 9 14 17 18 31 36 42 31 32 37 43 38 24 13
30 37 38 45 47 42 50 37 47 67 64 68 64 64 69 58 54 49 46 43 33 31 30 24 20 20 17 13 8 9 6 11 19 20 28 33 31 36 41 38 34 11 4
28 34 40 43 53 58 55 44 51 72 68 71 77 71 74 69 57 53 50 51 46 45 32 27 22 22 19 16 12 12 7 11 15 22 21 15 15 18 25 32 35 12 3
20 29 34 42 55 70 70 70 69 68 71 63 63 77 84 75 63 71 61 56 59 55 44 34 30 29 25 23 22 13 11 9 6 29 24 13 13 14 19 25 28 18 4
20 22 30 42 51 60 67 68 69 65 66 68 77 80 84 85 87 90 71 63 68 64 53 43 40 32 27 32 27 26 19 14 12 16 23 11 12 14 17 23 16 19 13
23 25 24 28 43 56 54 57 60 66 67 77 83 89 89 78 78 94 95 82 78 76 66 62 52 37 32 35 34 30 27 27 25 18 20 7 14 13 17 18 20 11 15
25 27 31 31 31 41 56 55 57 54 62 75 77 80 77 76 80 84 85 76 70 74 73 67 60 51 51 44 40 33 26 16 15 17 22 11 12 17 15 22 25 15 25
23 27 30 32 35 39 41 50 58 64 65 66 66 69 78 75 81 86 105 94 92 79 74 69 63 58 58 58 50 41 28 22 22 18 24 16 14 19 11 14 16 32 30
Wind_Direction_850mb
226 223 219 214 219 230 247 256 247 282 249 237 252 240 222 214 212 185 257 252 295 276 190 209 222 255 265 266 269 274 276 281 289 290 293 293 298 301 299 300 306 307 303
231 225 227 226 230 235 239 242 255 257 251 242 256 189 181 196 179 164 230 285 271 226 169 137 174 210 232 244 258 269 275 283 288 290 287 284 288 292 294 291 292 291 294
233 225 231 235 244 239 231 237 274 267 252 248 224 202 191 186 196 187 170 204 346 278 194 175 188 222 244 229 238 264 278 289 291 288 288 288 291 289 288 283 284 287 289
237 238 231 237 243 236 237 231 240 244 238 233 227 214 215 186 201 189 183 178 166 242 142 174 181 160 136 140 135 102 36 356 328 322 310 298 294 289 287 273 267 276 284
243 239 233 233 235 238 234 235 241 234 237 213 222 210 211 210 200 208 199 190 197 166 205 195 182 185 160 152 133 47 5 347 339 330 316 304 297 291 288 284 276 274 274
243 242 234 231 240 236 239 238 239 242 228 223 209 220 203 210 207 218 216 187 198 178 173 175 151 201 179 171 358 353 360 351 355 350 350 342 328 312 300 290 287 285 282
239 242 236 238 244 237 235 241 255 251 233 220 207 219 219 215 215 214 211 206 205 171 198 184 165 207 222 248 323 339 353 351 350 354 349 4 351 339 335 323 305 298 291
242 245 245 235 244 232 243 243 250 232 230 219 210 218 224 233 237 226 215 209 212 213 213 200 201 187 199 243 280 322 343 346 339 335 348 346 337 335 335 328 320 314 307
244 245 248 239 242 235 238 242 251 248 236 234 217 213 225 242 208 230 221 214 218 213 219 223 217 218 225 227 292 322 331 329 327 330 339 333 328 328 335 333 324 316 310
243 242 244 245 241 237 228 243 248 249 231 235 237 233 233 230 228 209 229 225 221 221 224 227 244 237 239 257 267 287 310 322 323 323 329 324 322 328 334 330 323 318 312
245 242 240 241 238 237 240 242 248 256 238 230 236 241 240 244 247 252 256 227 234 229 234 232 233 246 250 252 272 289 311 314 315 318 319 320 324 328 335 329 322 320 319
240 236 234 233 233 236 239 245 246 255 243 238 231 231 234 239 244 244 249 250 231 230 226 224 236 242 243 248 273 286 299 307 314 316 321 324 326 332 334 328 327 327 325
217 223 224 227 232 234 231 239 246 252 250 246 243 236 236 239 241 242 242 247 231 219 227 221 229 231 237 247 267 291 301 309 313 320 324 327 331 332 338 330 328 330 330
209 220 223 228 232 236 232 236 246 257 251 251 245 238 236 240 238 238 237 237 238 227 231 220 219 216 228 249 269 288 302 309 315 323 330 330 334 339 338 331 332 331 332
242 243 244 236 237 254 255 236 254 253 249 253 245 244 237 239 235 233 230 227 231 230 230 229 220 220 222 249 265 280 290 306 323 334 334 336 337 342 338 333 335 338 335
245 244 222 246 247 257 278 267 242 253 256 250 245 245 237 233 232 227 224 225 223 228 237 220 210 227 221 245 265 276 296 316 335 343 337 337 340 344 338 340 342 341 341
218 235 255 259 256 267 268 241 221 236 242 246 243 235 240 228 228 223 218 218 215 208 228 214 207 232 231 236 257 291 331 344 328 340 339 337 344 343 343 345 344 342 346
231 247 239 241 248 244 262 242 233 224 228 239 239 240 243 239 229 220 216 217 209 210 210 212 211 220 214 214 255 311 349 329 338 335 337 338 344 349 344 350 348 347 1
251 248 244 233 235 231 235 217 219 200 214 220 243 246 243 235 235 220 220 227 214 212 213 202 203 204 215 232 271 309 338 340 348 335 335 337 346 344 352 357 358 355 52
243 249 234 236 231 229 211 245 219 203 215 231 237 236 239 238 236 231 237 227 215 214 216 210 202 212 223 239 265 236 308 319 326 323 330 332 346 352 348 5 6 12 72
259 246 245 241 234 230 220 239 231 216 238 249 243 242 235 234 234 240 234 232 226 222 221 215 216 217 218 226 233 237 310 311 321 313 335 329 335 348 340 351 4 11 163
295 262 264 258 245 235 237 249 255 246 255 247 244 236 233 232 239 243 245 237 236 231 221 221 226 231 220 235 247 252 279 302 290 304 325 328 326 341 338 344 0 12 319
317 301 280 260 253 254 256 260 254 254 243 245 244 240 238 241 241 237 238 239 237 236 235 240 232 234 238 250 243 269 275 284 278 264 312 316 300 341 320 331 348 3 351
312 294 283 285 271 258 256 258 252 249 248 245 245 247 251 247 237 235 233 242 234 233 231 237 240 240 248 250 256 262 272 286 294 291 293 323 297 325 311 307 314 314 340
325 312 297 285 278 275 260 257 253 245 249 248 244 244 249 247 242 235 232 232 232 235 235 238 241 248 255 259 263 269 272 265 270 259 285 285 297 313 312 295 298 275 319
324 314 303 294 289 285 271 257 251 247 252 249 246 246 247 246 244 240 240 225 227 239 237 235 237 242 250 255 258 258 256 252 256 267 249 273 298 310 318 277 278 304 308